Voltar ao catálogo

STARLINK-36338

AtivoComunicaçõesSSO
NORAD 67704·PAYLOAD·🇺🇸 United States

Lançado Feb 7, 2026 de Vandenberg Space Force Base

Loading…

Próximas Passagens (próximas 24 horas)

TLE

AtualizadoSource: CelesTrak SupGP

Época: Sep 14, 2026, 20:33 UTC

1 67704C 26025M   26257.85673611 -.00010336  00000+0 -32077-3 0  2571
2 67704  97.2858   7.7811 0000936 105.2673  25.8705 15.33453695    13

Acompanhe STARLINK-36338 em tempo real com AllMySat

Download on the App Store